| time (UTC) | temp F | wind direction | speed MPH | gust MPH | rain 1hr in | rain 24hr in | rain mn in | humidity % | barometer mb |
| 20260503024003 | 60 | 25 | 1.0 | 2.0 | 0.00 | 0.00 | 0.00 | 72 | 1022.9 |
| 20260503023524 | 61 | 25 | 0.0 | 1.0 | 0.00 | 0.00 | 0.00 | 72 | 1022.7 |
| 20260503023003 | 61 | 25 | 0.0 | 1.0 | 0.00 | 0.00 | 0.00 | 72 | 1022.6 |
| 20260503022503 | 62 | 25 | 0.0 | 1.0 | 0.00 | 0.00 | 0.00 | 71 | 1022.5 |
| 20260503022003 | 62 | 25 | 0.0 | 1.0 | 0.00 | 0.00 | 0.00 | 70 | 1022.4 |
| 20260503021503 | 63 | 0 | 0.0 | 0.0 | 0.00 | 0.00 | 0.00 | 69 | 1022.3 |
| 20260503021003 | 64 | 25 | 0.0 | 1.0 | 0.00 | 0.00 | 0.00 | 67 | 1022.2 |
| 20260503020503 | 64 | 25 | 0.0 | 1.0 | 0.00 | 0.00 | 0.00 | 67 | 1022.2 |
| 20260503020003 | 64 | 25 | 0.0 | 2.0 | 0.00 | 0.00 | 0.00 | 66 | 1022.2 |
| 20260503015503 | 65 | 25 | 0.0 | 2.0 | 0.00 | 0.00 | 0.00 | 65 | 1022.1 |
| 20260503015003 | 66 | 25 | 0.0 | 1.0 | 0.00 | 0.00 | 0.00 | 63 | 1022.2 |
| 20260503014503 | 66 | 25 | 0.0 | 1.0 | 0.00 | 0.00 | 0.00 | 62 | 1022.1 |
| 20260503014024 | 67 | 25 | 0.0 | 1.0 | 0.00 | 0.00 | 0.00 | 61 | 1022.1 |
| 20260503013503 | 68 | 25 | 0.0 | 1.0 | 0.00 | 0.00 | 0.00 | 60 | 1022.1 |
| 20260503013004 | 68 | 25 | 0.0 | 1.0 | 0.00 | 0.00 | 0.00 | 59 | 1022.1 |
| 20260503012504 | 69 | 25 | 0.0 | 2.0 | 0.00 | 0.00 | 0.00 | 58 | 1022.1 |
| 20260503012004 | 69 | 25 | 1.0 | 2.0 | 0.00 | 0.00 | 0.00 | 58 | 1022.0 |
| 20260503011504 | 70 | 25 | 1.0 | 4.0 | 0.00 | 0.00 | 0.00 | 57 | 1021.8 |
| 20260503011004 | 70 | 25 | 1.0 | 4.0 | 0.00 | 0.00 | 0.00 | 56 | 1021.9 |
| 20260503010504 | 71 | 25 | 0.0 | 4.0 | 0.00 | 0.00 | 0.00 | 55 | 1021.9 |
| 20260503010004 | 72 | 25 | 0.0 | 1.0 | 0.00 | 0.00 | 0.00 | 53 | 1021.8 |
| 20260503005504 | 72 | 25 | 0.0 | 2.0 | 0.00 | 0.00 | 0.00 | 52 | 1021.9 |
| 20260503005004 | 73 | 25 | 0.0 | 4.0 | 0.00 | 0.00 | 0.00 | 51 | 1021.8 |
| 20260503004525 | 73 | 25 | 1.0 | 4.0 | 0.00 | 0.00 | 0.00 | 50 | 1021.8 |
| 20260503004004 | 73 | 25 | 1.0 | 4.0 | 0.00 | 0.00 | 0.00 | 47 | 1021.8 |
| 20260503003525 | 74 | 25 | 1.0 | 4.0 | 0.00 | 0.00 | 0.00 | 46 | 1021.7 |
| 20260503003004 | 74 | 26 | 2.0 | 5.0 | 0.00 | 0.00 | 0.00 | 46 | 1021.6 |
| 20260503002504 | 74 | 26 | 2.0 | 5.0 | 0.00 | 0.00 | 0.00 | 44 | 1021.7 |
| 20260503002004 | 74 | 28 | 4.0 | 7.0 | 0.00 | 0.00 | 0.00 | 43 | 1021.7 |
| 20260503001503 | 74 | 34 | 4.0 | 7.0 | 0.00 | 0.00 | 0.00 | 42 | 1021.7 |
| 20260503001003 | 74 | 45 | 4.0 | 8.0 | 0.00 | 0.00 | 0.00 | 42 | 1021.7 |
| 20260503000525 | 75 | 61 | 2.0 | 8.0 | 0.00 | 0.00 | 0.00 | 41 | 1021.6 |
| 20260503000025 | 75 | 23 | 2.0 | 7.0 | 0.00 | 0.01 | 0.00 | 43 | 1021.7 |
| 20260502235504 | 75 | 355 | 4.0 | 8.0 | 0.00 | 0.01 | 0.00 | 41 | 1021.7 |
| 20260502235003 | 75 | 3 | 4.0 | 10.0 | 0.00 | 0.01 | 0.00 | 41 | 1021.7 |
| 20260502234504 | 75 | 354 | 4.0 | 10.0 | 0.00 | 0.01 | 0.00 | 41 | 1021.7 |
| 20260502234004 | 76 | 349 | 4.0 | 8.0 | 0.00 | 0.01 | 0.00 | 40 | 1021.6 |
| 20260502233504 | 76 | 338 | 4.0 | 7.0 | 0.00 | 0.01 | 0.00 | 41 | 1021.7 |
| 20260502233004 | 76 | 17 | 4.0 | 10.0 | 0.00 | 0.01 | 0.00 | 38 | 1021.7 |
| 20260502232504 | 76 | 53 | 4.0 | 10.0 | 0.00 | 0.01 | 0.00 | 40 | 1021.5 |
| 20260502232003 | 77 | 30 | 5.0 | 11.0 | 0.00 | 0.01 | 0.00 | 40 | 1021.6 |
| 20260502231525 | 77 | 18 | 5.0 | 11.0 | 0.00 | 0.01 | 0.00 | 39 | 1021.6 |
| 20260502231004 | 77 | 4 | 5.0 | 10.0 | 0.00 | 0.01 | 0.00 | 39 | 1021.6 |
| 20260502230504 | 77 | 8 | 6.0 | 11.0 | 0.00 | 0.01 | 0.00 | 39 | 1021.6 |
| 20260502230004 | 77 | 27 | 4.0 | 11.0 | 0.00 | 0.01 | 0.00 | 38 | 1021.5 |
| 20260502225504 | 78 | 63 | 5.0 | 12.0 | 0.00 | 0.01 | 0.00 | 39 | 1021.5 |
| 20260502225004 | 78 | 47 | 6.0 | 12.0 | 0.00 | 0.01 | 0.00 | 39 | 1021.5 |
| 20260502224504 | 78 | 30 | 5.0 | 12.0 | 0.00 | 0.01 | 0.00 | 37 | 1021.5 |
| 20260502224003 | 78 | 32 | 5.0 | 11.0 | 0.00 | 0.01 | 0.00 | 38 | 1021.5 |
| 20260502223504 | 79 | 36 | 5.0 | 10.0 | 0.00 | 0.01 | 0.00 | 39 | 1021.5 |
| 20260502223004 | 79 | 32 | 5.0 | 11.0 | 0.00 | 0.01 | 0.00 | 37 | 1021.6 |
| 20260502222504 | 79 | 24 | 6.0 | 13.0 | 0.00 | 0.02 | 0.00 | 38 | 1021.6 |
| 20260502222004 | 79 | 13 | 7.0 | 16.0 | 0.00 | 0.02 | 0.00 | 37 | 1021.7 |
| 20260502221504 | 79 | 11 | 7.0 | 18.0 | 0.00 | 0.03 | 0.00 | 37 | 1021.7 |
| 20260502221004 | 80 | 30 | 6.0 | 18.0 | 0.00 | 0.03 | 0.00 | 36 | 1021.6 |
| 20260502220525 | 80 | 28 | 6.0 | 14.0 | 0.00 | 0.04 | 0.00 | 36 | 1021.6 |
| 20260502220003 | 80 | 18 | 4.0 | 14.0 | 0.00 | 0.07 | 0.00 | 36 | 1021.8 |
| 20260502215503 | 80 | 27 | 4.0 | 12.0 | 0.00 | 0.08 | 0.00 | 38 | 1021.9 |
| 20260502215004 | 80 | 29 | 5.0 | 14.0 | 0.00 | 0.08 | 0.00 | 34 | 1021.9 |
| 20260502214504 | 80 | 34 | 6.0 | 14.0 | 0.00 | 0.09 | 0.00 | 35 | 1021.8 |
| 20260502214003 | 80 | 31 | 6.0 | 12.0 | 0.00 | 0.09 | 0.00 | 34 | 1021.9 |
| 20260502213503 | 80 | 7 | 5.0 | 10.0 | 0.00 | 0.09 | 0.00 | 38 | 1021.9 |
| 20260502213004 | 79 | 347 | 6.0 | 16.0 | 0.00 | 0.11 | 0.00 | 40 | 1022.0 |
| 20260502212504 | 79 | 352 | 7.0 | 16.0 | 0.00 | 0.13 | 0.00 | 37 | 1022.2 |
| 20260502212004 | 79 | 358 | 6.0 | 14.0 | 0.00 | 0.15 | 0.00 | 36 | 1022.2 |
| 20260502211504 | 79 | 355 | 5.0 | 14.0 | 0.00 | 0.17 | 0.00 | 38 | 1022.3 |
| 20260502211004 | 79 | 6 | 6.0 | 13.0 | 0.00 | 0.18 | 0.00 | 38 | 1022.3 |
| 20260502210503 | 78 | 12 | 7.0 | 16.0 | 0.00 | 0.19 | 0.00 | 37 | 1022.4 |
| 20260502210024 | 78 | 16 | 7.0 | 16.0 | 0.00 | 0.19 | 0.00 | 38 | 1022.4 |
| 20260502205504 | 78 | 16 | 7.0 | 17.0 | 0.00 | 0.20 | 0.00 | 39 | 1022.6 |
| 20260502205004 | 79 | 20 | 7.0 | 17.0 | 0.00 | 0.21 | 0.00 | 38 | 1022.6 |
| 20260502204525 | 79 | 28 | 6.0 | 14.0 | 0.00 | 0.21 | 0.00 | 37 | 1022.7 |
| 20260502204003 | 79 | 35 | 5.0 | 14.0 | 0.00 | 0.22 | 0.00 | 37 | 1022.7 |
| 20260502203504 | 79 | 26 | 5.0 | 13.0 | 0.00 | 0.23 | 0.00 | 38 | 1022.8 |
| 20260502203004 | 79 | 358 | 6.0 | 16.0 | 0.00 | 0.23 | 0.00 | 39 | 1022.8 |
| 20260502202503 | 78 | 350 | 10.0 | 17.0 | 0.00 | 0.23 | 0.00 | 40 | 1022.9 |
| 20260502202004 | 78 | 345 | 7.0 | 17.0 | 0.00 | 0.23 | 0.00 | 38 | 1022.9 |
| 20260502201504 | 78 | 7 | 5.0 | 12.0 | 0.00 | 0.23 | 0.00 | 38 | 1023.0 |
| 20260502201025 | 78 | 24 | 4.0 | 10.0 | 0.00 | 0.23 | 0.00 | 41 | 1023.1 |
| 20260502200504 | 78 | 8 | 5.0 | 11.0 | 0.00 | 0.23 | 0.00 | 37 | 1023.2 |
| 20260502200004 | 78 | 360 | 7.0 | 12.0 | 0.00 | 0.23 | 0.00 | 38 | 1023.3 |
| 20260502195503 | 78 | 350 | 7.0 | 16.0 | 0.00 | 0.23 | 0.00 | 38 | 1023.4 |
| 20260502195024 | 78 | 357 | 6.0 | 16.0 | 0.00 | 0.23 | 0.00 | 42 | 1023.4 |
| 20260502194504 | 78 | 15 | 5.0 | 14.0 | 0.00 | 0.24 | 0.00 | 39 | 1023.3 |
| 20260502194004 | 78 | 9 | 5.0 | 14.0 | 0.00 | 0.24 | 0.00 | 43 | 1023.4 |
| 20260502193503 | 78 | 8 | 5.0 | 16.0 | 0.00 | 0.24 | 0.00 | 43 | 1023.3 |
| 20260502193025 | 78 | 15 | 6.0 | 16.0 | 0.00 | 0.25 | 0.00 | 43 | 1023.3 |
| 20260502192503 | 77 | 5 | 7.0 | 17.0 | 0.00 | 0.26 | 0.00 | 44 | 1023.5 |
| 20260502192003 | 77 | 354 | 6.0 | 17.0 | 0.00 | 0.27 | 0.00 | 40 | 1023.6 |
| 20260502191504 | 77 | 335 | 5.0 | 12.0 | 0.00 | 0.28 | 0.00 | 44 | 1023.5 |
| 20260502191025 | 77 | 341 | 5.0 | 14.0 | 0.00 | 0.29 | 0.00 | 46 | 1023.5 |
| 20260502190503 | 76 | 13 | 6.0 | 14.0 | 0.00 | 0.30 | 0.00 | 46 | 1023.5 |
| 20260502190025 | 76 | 29 | 6.0 | 17.0 | 0.00 | 0.30 | 0.00 | 45 | 1023.5 |
| 20260502185503 | 76 | 40 | 6.0 | 17.0 | 0.00 | 0.30 | 0.00 | 43 | 1023.6 |
| 20260502185004 | 76 | 58 | 6.0 | 11.0 | 0.00 | 0.30 | 0.00 | 43 | 1023.7 |
| 20260502184504 | 76 | 33 | 6.0 | 16.0 | 0.00 | 0.30 | 0.00 | 45 | 1023.7 |
| 20260502184003 | 76 | 7 | 5.0 | 16.0 | 0.00 | 0.30 | 0.00 | 47 | 1023.7 |
| 20260502183504 | 75 | 21 | 4.0 | 12.0 | 0.00 | 0.30 | 0.00 | 47 | 1023.7 |
| 20260502183025 | 75 | 33 | 6.0 | 13.0 | 0.00 | 0.30 | 0.00 | 49 | 1023.8 |
| 20260502182524 | 75 | 17 | 6.0 | 13.0 | 0.00 | 0.30 | 0.00 | 49 | 1023.8 |
| 20260502182004 | 74 | 346 | 5.0 | 14.0 | 0.00 | 0.31 | 0.00 | 50 | 1024.0 |
| 20260502181503 | 74 | 350 | 6.0 | 14.0 | 0.00 | 0.33 | 0.00 | 49 | 1024.1 |
| 20260502181004 | 74 | 355 | 7.0 | 12.0 | 0.00 | 0.35 | 0.00 | 49 | 1024.4 |
| 20260502180503 | 74 | 342 | 7.0 | 14.0 | 0.00 | 0.37 | 0.00 | 53 | 1024.4 |
| 20260502170503 | 70 | 341 | 6.0 | 11.0 | 0.00 | 0.55 | 0.00 | 60 | 1025.3 |
| 20260502164003 | 68 | 6 | 5.0 | 13.0 | 0.00 | 0.55 | 0.00 | 63 | 1025.4 |
| 20260502163524 | 68 | 350 | 5.0 | 10.0 | 0.00 | 0.55 | 0.00 | 61 | 1025.3 |
| 20260502163003 | 68 | 353 | 5.0 | 10.0 | 0.00 | 0.55 | 0.00 | 62 | 1025.2 |
| 20260502162504 | 67 | 10 | 4.0 | 11.0 | 0.00 | 0.55 | 0.00 | 63 | 1025.2 |
| 20260502162003 | 67 | 360 | 5.0 | 11.0 | 0.00 | 0.55 | 0.00 | 65 | 1025.3 |
| 20260502161503 | 67 | 351 | 6.0 | 13.0 | 0.00 | 0.55 | 0.00 | 61 | 1025.4 |
| 20260502161024 | 66 | 349 | 6.0 | 13.0 | 0.00 | 0.55 | 0.00 | 63 | 1025.4 |
| 20260502160503 | 66 | 345 | 5.0 | 16.0 | 0.00 | 0.55 | 0.00 | 66 | 1025.3 |
| 20260502152003 | 64 | 341 | 6.0 | 13.0 | 0.00 | 0.60 | 0.00 | 69 | 1025.3 |
| 20260502151503 | 64 | 359 | 5.0 | 10.0 | 0.00 | 0.61 | 0.00 | 71 | 1025.4 |
| 20260502151024 | 64 | 353 | 6.0 | 12.0 | 0.00 | 0.61 | 0.00 | 70 | 1025.3 |
| 20260502150503 | 63 | 347 | 6.0 | 12.0 | 0.00 | 0.61 | 0.00 | 71 | 1025.3 |
| 20260502130504 | 51 | 337 | 4.0 | 8.0 | 0.00 | 0.75 | 0.00 | 95 | 1023.9 |
| 20260502123525 | 49 | 342 | 2.0 | 6.0 | 0.00 | 0.75 | 0.00 | 93 | 1023.7 |
| 20260502123004 | 49 | 342 | 2.0 | 5.0 | 0.00 | 0.76 | 0.00 | 93 | 1023.5 |
| 20260502122504 | 49 | 342 | 1.0 | 5.0 | 0.00 | 0.77 | 0.00 | 93 | 1023.4 |
| 20260502122004 | 49 | 342 | 1.0 | 4.0 | 0.00 | 0.80 | 0.00 | 93 | 1023.2 |
| 20260502121503 | 49 | 342 | 1.0 | 4.0 | 0.00 | 0.82 | 0.00 | 93 | 1023.2 |
| 20260502121004 | 49 | 342 | 1.0 | 4.0 | 0.00 | 0.84 | 0.00 | 93 | 1023.0 |
| 20260502120525 | 49 | 342 | 1.0 | 4.0 | 0.00 | 0.84 | 0.00 | 93 | 1022.9 |
| 20260502115504 | 49 | 342 | 1.0 | 4.0 | 0.00 | 0.86 | 0.00 | 93 | 1022.8 |
| 20260502115004 | 49 | 342 | 1.0 | 4.0 | 0.00 | 0.88 | 0.00 | 93 | 1022.8 |
| 20260502114504 | 49 | 342 | 1.0 | 4.0 | 0.00 | 0.90 | 0.00 | 93 | 1022.7 |
| 20260502114004 | 49 | 342 | 1.0 | 5.0 | 0.00 | 0.93 | 0.00 | 93 | 1022.7 |
| 20260502113504 | 49 | 342 | 1.0 | 5.0 | 0.00 | 0.95 | 0.00 | 93 | 1022.7 |
| 20260502113004 | 49 | 342 | 2.0 | 4.0 | 0.00 | 0.97 | 0.00 | 93 | 1022.7 |
| 20260502112504 | 49 | 342 | 1.0 | 5.0 | 0.00 | 0.98 | 0.00 | 93 | 1022.6 |
| 20260502112004 | 49 | 342 | 2.0 | 5.0 | 0.00 | 0.98 | 0.00 | 93 | 1022.6 |
| 20260502111504 | 50 | 342 | 2.0 | 5.0 | 0.00 | 0.99 | 0.00 | 93 | 1022.4 |
| 20260502111003 | 50 | 342 | 4.0 | 6.0 | 0.00 | 0.99 | 0.00 | 93 | 1022.3 |
| 20260502110504 | 50 | 342 | 4.0 | 6.0 | 0.00 | 1.00 | 0.00 | 93 | 1022.3 |
| 20260502110004 | 50 | 342 | 4.0 | 7.0 | 0.00 | 1.01 | 0.00 | 93 | 1022.3 |
| 20260502105503 | 50 | 342 | 2.0 | 7.0 | 0.00 | 1.03 | 0.00 | 93 | 1022.3 |
| 20260502105025 | 50 | 342 | 2.0 | 7.0 | 0.00 | 1.05 | 0.00 | 93 | 1022.3 |
| 20260502104504 | 50 | 342 | 2.0 | 5.0 | 0.00 | 1.08 | 0.00 | 93 | 1022.2 |
| 20260502104003 | 50 | 342 | 2.0 | 5.0 | 0.00 | 1.10 | 0.00 | 93 | 1021.9 |
| 20260502103503 | 50 | 342 | 2.0 | 4.0 | 0.00 | 1.12 | 0.00 | 93 | 1021.9 |
| 20260502103004 | 50 | 342 | 2.0 | 5.0 | 0.00 | 1.14 | 0.00 | 93 | 1021.9 |
| 20260502102524 | 50 | 342 | 2.0 | 5.0 | 0.00 | 1.15 | 0.00 | 93 | 1021.7 |
| 20260502102004 | 50 | 342 | 2.0 | 6.0 | 0.00 | 1.17 | 0.00 | 93 | 1021.7 |
| 20260502101504 | 51 | 342 | 4.0 | 6.0 | 0.00 | 1.18 | 0.00 | 93 | 1021.4 |
| 20260502101004 | 51 | 342 | 4.0 | 6.0 | 0.00 | 1.19 | 0.00 | 93 | 1021.4 |
| 20260502100525 | 51 | 342 | 4.0 | 6.0 | 0.00 | 1.21 | 0.00 | 93 | 1021.4 |
| 20260502091504 | 51 | 348 | 6.0 | 10.0 | 0.00 | 1.28 | 0.00 | 93 | 1020.5 |
| 20260502091003 | 51 | 345 | 5.0 | 10.0 | 0.00 | 1.29 | 0.00 | 93 | 1020.5 |
| 20260502090504 | 51 | 344 | 5.0 | 8.0 | 0.00 | 1.31 | 0.00 | 93 | 1020.5 |
| 20260502071503 | 52 | 336 | 5.0 | 10.0 | 0.00 | 1.60 | 0.00 | 93 | 1020.3 |
| 20260502071004 | 52 | 339 | 5.0 | 10.0 | 0.00 | 1.60 | 0.00 | 93 | 1020.2 |
| 20260502070525 | 52 | 343 | 5.0 | 10.0 | 0.00 | 1.60 | 0.00 | 93 | 1020.1 |
| 20260502070004 | 52 | 344 | 5.0 | 10.0 | 0.00 | 1.60 | 0.00 | 92 | 1020.0 |
| 20260502065524 | 52 | 344 | 4.0 | 10.0 | 0.00 | 1.60 | 0.00 | 92 | 1020.0 |
| 20260502065003 | 52 | 347 | 5.0 | 12.0 | 0.00 | 1.60 | 0.00 | 92 | 1020.0 |
| 20260502064525 | 52 | 346 | 5.0 | 12.0 | 0.00 | 1.60 | 0.00 | 92 | 1020.1 |
| 20260502064004 | 52 | 342 | 5.0 | 8.0 | 0.00 | 1.60 | 0.00 | 92 | 1020.1 |
| 20260502063503 | 52 | 343 | 5.0 | 8.0 | 0.00 | 1.60 | 0.00 | 92 | 1020.1 |
| 20260502063004 | 52 | 348 | 4.0 | 7.0 | 0.00 | 1.60 | 0.00 | 92 | 1020.2 |
| 20260502062504 | 52 | 341 | 5.0 | 7.0 | 0.00 | 1.61 | 0.00 | 92 | 1020.3 |
| 20260502062003 | 52 | 338 | 5.0 | 10.0 | 0.00 | 1.61 | 0.00 | 92 | 1020.4 |
| 20260502061503 | 52 | 347 | 4.0 | 10.0 | 0.00 | 1.61 | 0.00 | 91 | 1020.4 |
| 20260502061004 | 52 | 348 | 4.0 | 7.0 | 0.00 | 1.61 | 0.00 | 91 | 1020.3 |
| 20260502060503 | 52 | 348 | 2.0 | 6.0 | 0.00 | 1.61 | 0.00 | 91 | 1020.3 |
| 20260502060003 | 52 | 348 | 2.0 | 6.0 | 0.00 | 1.61 | 0.00 | 91 | 1020.4 |
| 20260502055503 | 52 | 348 | 2.0 | 5.0 | 0.00 | 1.61 | 0.00 | 91 | 1020.4 |
| 20260502055003 | 53 | 348 | 2.0 | 5.0 | 0.00 | 1.61 | 0.00 | 91 | 1020.4 |
| 20260502054503 | 53 | 348 | 2.0 | 6.0 | 0.00 | 1.61 | 0.00 | 91 | 1020.5 |
| 20260502054003 | 53 | 348 | 2.0 | 6.0 | 0.00 | 1.61 | 0.00 | 91 | 1020.4 |
| 20260502053503 | 53 | 348 | 4.0 | 7.0 | 0.00 | 1.61 | 0.00 | 91 | 1020.3 |
| 20260502053003 | 53 | 348 | 4.0 | 7.0 | 0.00 | 1.61 | 0.00 | 91 | 1020.4 |
| 20260502052524 | 53 | 348 | 5.0 | 7.0 | 0.00 | 1.61 | 0.00 | 91 | 1020.3 |
| 20260502052025 | 53 | 349 | 4.0 | 7.0 | 0.00 | 1.61 | 0.00 | 91 | 1020.1 |
| 20260502051503 | 53 | 349 | 4.0 | 7.0 | 0.00 | 1.61 | 0.00 | 91 | 1020.0 |
| 20260502051003 | 53 | 349 | 4.0 | 7.0 | 0.00 | 1.61 | 0.00 | 91 | 1020.1 |
| 20260502050503 | 53 | 349 | 4.0 | 6.0 | 0.00 | 1.61 | 0.00 | 91 | 1020.0 |
| 20260502050024 | 53 | 349 | 4.0 | 6.0 | 0.00 | 1.61 | 0.00 | 91 | 1019.9 |
| 20260502045503 | 54 | 350 | 4.0 | 8.0 | 0.00 | 1.61 | 1.61 | 91 | 1020.0 |
| 20260502045024 | 54 | 351 | 4.0 | 8.0 | 0.00 | 1.61 | 1.61 | 91 | 1020.0 |
| 20260502044504 | 54 | 353 | 4.0 | 7.0 | 0.00 | 1.61 | 1.61 | 91 | 1019.9 |
| 20260502044004 | 54 | 354 | 5.0 | 7.0 | 0.00 | 1.61 | 1.61 | 91 | 1020.1 |
| 20260502043503 | 54 | 346 | 5.0 | 11.0 | 0.00 | 1.61 | 1.61 | 91 | 1020.1 |
| 20260502043003 | 54 | 349 | 5.0 | 11.0 | 0.00 | 1.61 | 1.61 | 91 | 1020.2 |
| 20260502042503 | 54 | 352 | 5.0 | 10.0 | 0.00 | 1.61 | 1.61 | 91 | 1020.1 |
| 20260502042024 | 54 | 346 | 5.0 | 10.0 | 0.00 | 1.61 | 1.61 | 91 | 1020.2 |
| 20260502041503 | 54 | 345 | 5.0 | 10.0 | 0.00 | 1.61 | 1.61 | 91 | 1020.1 |
| 20260502041003 | 54 | 346 | 5.0 | 14.0 | 0.00 | 1.61 | 1.61 | 91 | 1020.1 |
| 20260502040503 | 54 | 350 | 5.0 | 14.0 | 0.00 | 1.61 | 1.61 | 91 | 1019.9 |
| 20260502040003 | 54 | 356 | 5.0 | 10.0 | 0.00 | 1.61 | 1.61 | 91 | 1019.8 |
| 20260502035524 | 54 | 360 | 5.0 | 11.0 | 0.00 | 1.61 | 1.61 | 91 | 1019.8 |
| 20260502035003 | 54 | 356 | 5.0 | 14.0 | 0.00 | 1.61 | 1.61 | 91 | 1019.8 |
| 20260502034503 | 54 | 353 | 6.0 | 14.0 | 0.00 | 1.61 | 1.61 | 91 | 1019.8 |
| 20260502034003 | 54 | 347 | 6.0 | 13.0 | 0.00 | 1.61 | 1.61 | 91 | 1019.9 |
| 20260502033503 | 54 | 346 | 7.0 | 16.0 | 0.00 | 1.61 | 1.61 | 91 | 1020.0 |
| 20260502033003 | 54 | 349 | 7.0 | 16.0 | 0.00 | 1.61 | 1.61 | 91 | 1020.0 |
| 20260502032503 | 54 | 351 | 6.0 | 14.0 | 0.00 | 1.61 | 1.61 | 92 | 1019.9 |
| 20260502032003 | 54 | 350 | 6.0 | 13.0 | 0.00 | 1.61 | 1.61 | 92 | 1019.8 |
| 20260502031503 | 54 | 345 | 6.0 | 13.0 | 0.00 | 1.61 | 1.61 | 92 | 1019.7 |
| 20260502031003 | 54 | 350 | 6.0 | 14.0 | 0.00 | 1.61 | 1.61 | 92 | 1019.6 |
| 20260502030503 | 54 | 349 | 6.0 | 14.0 | 0.00 | 1.61 | 1.61 | 92 | 1019.4 |
| 20260502030003 | 54 | 349 | 7.0 | 14.0 | 0.00 | 1.61 | 1.61 | 92 | 1019.4 |
| 20260502025503 | 54 | 354 | 7.0 | 16.0 | 0.00 | 1.61 | 1.61 | 92 | 1019.4 |
| 20260502025003 | 54 | 353 | 6.0 | 16.0 | 0.00 | 1.61 | 1.61 | 92 | 1019.3 |
| 20260502024503 | 54 | 351 | 6.0 | 14.0 | 0.00 | 1.61 | 1.61 | 93 | 1019.2 |